Lumberton, NC

7:47 PM EDT on August 31, 2016 (GMT -0400)
Lumberton Municipal

Weather History for KLBT - February, 2013

Change the Weather History Date:

Saturday, February 16, 2013

  Actual Average Record
Temperature  
Mean Temperature 41 °F 47 °F  
Max Temperature 47 °F 58 °F 78 °F (2001)
Min Temperature 34 °F 36 °F 22 °F (2007)
Degree Days  
Heating Degree Days 24 18  
Month to date heating degree days 298 312  
Since 1 July heating degree days 1822 2031  
Cooling Degree Days 0 0  
Month to date cooling degree days 0 0  
Year to date cooling degree days 4 1  
Moisture  
Dew Point 34 °F    
Average Humidity 79    
Maximum Humidity 92    
Minimum Humidity 65    
Precipitation  
Precipitation 0.25 in 0.12 in 1.57 in (2016)
Month to date precipitation 1.97 1.53  
Year to date precipitation 3.45 4.50  
Sea Level Pressure  
Sea Level Pressure 29.88 in    
Wind  
Wind Speed 8 mph (NNW)    
Max Wind Speed 18 mph    
Max Gust Speed 24 mph    
Visibility 7 miles    
Events Rain , Snow    
T = Trace of Precipitation, MM = Missing Value Source: NWS Daily Summary

Daily Weather History Graph

Daily Weather History Graph

Search for Another Location

Airport or City:

Trip Planner

Search our weather history database for the weather conditions in past years. The results will help you decide how hot, cold, wet, or windy it might be!

Date:

Astronomy

Feb. 16, 2013 Rise Set
Actual Time 7:00 AM EST 6:00 PM EST
Civil Twilight 6:34 AM EST 6:26 PM EST
Nautical Twilight 6:05 AM EST 6:55 PM EST
Astronomical Twilight 5:35 AM EST 7:25 PM EST
Moon 10:30 AM EST (2/16) No Moon Set
Length of Visible Light 11h 51m
Length of Day
11h 00m
Waxing Crescent, 39% of the Moon is Illuminated
Feb 16
Waxing Crescent
Feb 17
First Quarter
Feb 25
Full
Mar 4
Last Quarter
Mar 11
New

Hourly Weather History & Observations

Time (EST) Temp. Windchill Dew Point Humidity Pressure Visibility Wind Dir Wind Speed Gust Speed Precip Events Conditions
12:54 AM 41.0 °F 39.0 °F 37.0 °F 86% 29.94 in 10.0 mi South 3.5 mph - N/A   Clear
1:54 AM 39.0 °F 29.9 °F 37.0 °F 93% 29.94 in 9.0 mi NNW 17.3 mph 20.7 mph N/A   Clear
2:54 AM 39.9 °F - 37.9 °F 93% 29.94 in 10.0 mi Calm Calm - N/A   Mostly Cloudy
3:54 AM 44.1 °F 40.8 °F 37.9 °F 79% 29.92 in 10.0 mi North 5.8 mph - N/A   Overcast
4:54 AM 44.1 °F 40.1 °F 37.0 °F 76% 29.91 in 10.0 mi North 6.9 mph - N/A   Overcast
5:54 AM 42.1 °F 39.2 °F 35.1 °F 76% 29.90 in 10.0 mi North 4.6 mph - N/A   Mostly Cloudy
6:54 AM 41.0 °F 38.0 °F 34.0 °F 76% 29.90 in 10.0 mi NNE 4.6 mph - N/A   Clear
7:54 AM 42.1 °F 39.2 °F 35.1 °F 76% 29.91 in 10.0 mi NNW 4.6 mph - N/A   Partly Cloudy
8:54 AM 45.0 °F 38.9 °F 35.1 °F 68% 29.91 in 10.0 mi North 12.7 mph - N/A   Overcast
9:54 AM 46.9 °F - 35.1 °F 63% 29.90 in 10.0 mi North 10.4 mph - N/A   Mostly Cloudy
10:54 AM 46.9 °F - 35.1 °F 63% 29.88 in 10.0 mi North 13.8 mph 17.3 mph N/A   Overcast
11:51 AM 42.8 °F 35.8 °F 35.6 °F 76% 29.87 in 10.0 mi NNW 13.8 mph 20.7 mph N/A   Overcast
11:54 AM 42.1 °F 34.9 °F 35.1 °F 76% 29.87 in 10.0 mi NNW 13.8 mph - N/A   Overcast
12:40 PM 37.4 °F 28.2 °F 35.6 °F 93% 29.87 in 9.0 mi NNW 16.1 mph 23.0 mph 0.01 in Rain Light Rain
12:54 PM 37.0 °F 28.5 °F 35.1 °F 93% 29.87 in 3.0 mi NW 13.8 mph 24.2 mph 0.02 in Rain Light Rain
12:58 PM 37.4 °F 28.2 °F 35.6 °F 93% 29.87 in 4.0 mi NW 16.1 mph 24.2 mph 0.01 in Rain Light Rain
1:19 PM 35.6 °F 26.6 °F 33.8 °F 93% 29.86 in 1.8 mi NNW 13.8 mph 24.2 mph 0.03 in Snow Light Snow
1:30 PM 33.8 °F 25.8 °F 33.8 °F 100% 29.85 in 1.2 mi NNW 10.4 mph - 0.04 in Snow Light Snow
1:45 PM 33.8 °F 25.3 °F 33.8 °F 100% 29.85 in 1.5 mi NNW 11.5 mph - 0.07 in Snow Light Snow
1:47 PM 33.8 °F 25.3 °F 33.8 °F 100% 29.85 in 2.0 mi NNW 11.5 mph - 0.07 in Snow Light Snow
1:54 PM 34.0 °F 26.0 °F 33.1 °F 96% 29.86 in 2.5 mi NNW 10.4 mph - 0.08 in Snow Light Snow
2:16 PM 35.6 °F 28.0 °F 33.8 °F 93% 29.85 in 2.5 mi NNW 10.4 mph - 0.04 in Snow Light Snow
2:25 PM 35.6 °F 28.6 °F 33.8 °F 93% 29.85 in 3.0 mi NNW 9.2 mph - 0.06 in Rain Rain
2:34 PM 35.6 °F 28.0 °F 33.8 °F 93% 29.85 in 4.0 mi NNW 10.4 mph - 0.07 in Snow Light Snow
2:54 PM 35.1 °F 28.6 °F 34.0 °F 96% 29.84 in 4.0 mi North 8.1 mph - 0.09 in Snow Light Snow
3:03 PM 35.6 °F 30.7 °F 33.8 °F 93% 29.84 in 6.0 mi North 5.8 mph - 0.00 in Rain Light Rain
3:25 PM 35.6 °F 29.9 °F 33.8 °F 93% 29.84 in 10.0 mi NNW 6.9 mph - 0.01 in   Overcast
3:45 PM 35.6 °F 29.9 °F 33.8 °F 93% 29.84 in 5.0 mi NW 6.9 mph - 0.03 in Snow Light Snow
3:54 PM 35.1 °F 31.0 °F 34.0 °F 96% 29.84 in 3.0 mi NNW 4.6 mph - 0.03 in Snow Light Snow
4:02 PM 33.8 °F 28.6 °F 33.8 °F 100% 29.84 in 2.5 mi NW 5.8 mph - 0.01 in Snow Light Snow
4:41 PM 35.6 °F 28.0 °F 33.8 °F 93% 29.80 in 3.0 mi ENE 10.4 mph - 0.02 in Snow Light Snow
4:54 PM 35.1 °F - 34.0 °F 96% 29.81 in 6.0 mi Calm Calm - 0.02 in   Overcast
5:04 PM 35.6 °F 29.9 °F 33.8 °F 93% 29.81 in 10.0 mi North 6.9 mph - N/A   Overcast
5:31 PM 35.6 °F 27.5 °F 33.8 °F 93% 29.84 in 10.0 mi NW 11.5 mph - N/A   Overcast
5:54 PM 36.0 °F 28.0 °F 34.0 °F 93% 29.85 in 10.0 mi NW 11.5 mph - N/A   Overcast
6:17 PM 35.6 °F 28.6 °F 33.8 °F 93% 29.85 in 10.0 mi NNW 9.2 mph - N/A   Overcast
6:54 PM 36.0 °F 29.6 °F 34.0 °F 93% 29.86 in 10.0 mi NNW 8.1 mph - N/A   Overcast
7:54 PM 35.1 °F 27.9 °F 33.1 °F 92% 29.87 in 9.0 mi NNW 9.2 mph - N/A   Overcast
8:54 PM 35.1 °F 30.1 °F 33.1 °F 92% 29.88 in 9.0 mi North 5.8 mph - 0.01 in   Overcast
9:04 PM 35.6 °F 31.7 °F 33.8 °F 93% 29.88 in 10.0 mi NNW 4.6 mph - N/A   Overcast
9:12 PM 35.6 °F 30.7 °F 33.8 °F 93% 29.89 in 10.0 mi NW 5.8 mph - N/A   Overcast
9:35 PM 35.6 °F 29.2 °F 33.8 °F 93% 29.91 in 10.0 mi WNW 8.1 mph - N/A   Overcast
9:54 PM 35.1 °F 27.9 °F 33.1 °F 92% 29.92 in 10.0 mi WNW 9.2 mph - N/A   Overcast
10:54 PM 35.1 °F 27.9 °F 33.1 °F 92% 29.94 in 10.0 mi WNW 9.2 mph - N/A   Overcast
11:14 PM 35.6 °F 28.6 °F 33.8 °F 93% 29.94 in 8.0 mi WNW 9.2 mph - N/A   Overcast
11:23 PM 35.6 °F 28.0 °F 33.8 °F 93% 29.94 in 9.0 mi WNW 10.4 mph - N/A   Overcast
11:54 PM 35.1 °F 27.4 °F 30.9 °F 85% 29.96 in 10.0 mi WNW 10.4 mph - N/A   Overcast